Time,TemperatureF,DewpointF,PressureIn,WindDirection,WindDirectionDegrees,WindSpeedMPH,WindSpeedGustMPH,Humidity,HourlyPrecipIn,Conditions,Clouds,dailyrainin,SoftwareType,DateUTC
2016-08-25 00:13:00,66.3,62.0,29.96,ESE,120,0.0,1.0,85,0.00,,,0.00,weatherlink.com 1.10,2016-08-25 07:13:00,
2016-08-25 00:28:00,65.8,62.0,29.96,ESE,120,0.0,1.0,86,0.00,,,0.00,weatherlink.com 1.10,2016-08-25 07:28:00,
2016-08-25 00:44:00,65.5,62.0,29.97,ESE,120,0.0,1.0,87,0.00,,,0.00,weatherlink.com 1.10,2016-08-25 07:44:00,
2016-08-25 00:59:00,65.1,62.0,29.96,ESE,120,0.0,0.0,88,0.00,,,0.00,weatherlink.com 1.10,2016-08-25 07:59:00,
2016-08-25 01:14:00,64.9,62.0,29.96,ESE,120,0.0,2.0,90,0.00,,,0.00,weatherlink.com 1.10,2016-08-25 08:14:00,
2016-08-25 01:29:00,64.6,62.0,29.96,ESE,120,0.0,3.0,91,0.00,,,0.00,weatherlink.com 1.10,2016-08-25 08:29:00,
2016-08-25 01:44:00,64.4,62.0,29.95,ESE,120,0.0,2.0,92,0.00,,,0.00,weatherlink.com 1.10,2016-08-25 08:44:00,
2016-08-25 01:59:00,64.5,62.0,29.95,ESE,120,0.0,2.0,92,0.00,,,0.00,weatherlink.com 1.10,2016-08-25 08:59:00,
2016-08-25 02:14:00,64.5,62.0,29.95,ESE,120,0.0,2.0,92,0.00,,,0.00,weatherlink.com 1.10,2016-08-25 09:14:00,
2016-08-25 02:29:00,64.3,62.0,29.95,ESE,120,0.0,1.0,92,0.00,,,0.00,weatherlink.com 1.10,2016-08-25 09:29:00,
2016-08-25 02:59:00,64.4,62.0,29.95,ESE,120,0.0,1.0,91,0.00,,,0.00,weatherlink.com 1.10,2016-08-25 09:59:00,
2016-08-25 03:14:00,64.4,62.0,29.95,ESE,120,0.0,1.0,91,0.00,,,0.00,weatherlink.com 1.10,2016-08-25 10:14:00,
2016-08-25 03:29:00,64.5,62.0,29.95,ESE,120,0.0,1.0,91,0.00,,,0.00,weatherlink.com 1.10,2016-08-25 10:29:00,
2016-08-25 03:44:00,64.4,62.0,29.94,ESE,120,0.0,0.0,91,0.00,,,0.00,weatherlink.com 1.10,2016-08-25 10:44:00,
2016-08-25 03:59:00,64.3,61.0,29.95,ESE,120,0.0,1.0,90,0.00,,,0.00,weatherlink.com 1.10,2016-08-25 10:59:00,
2016-08-25 04:14:00,64.1,62.0,29.94,ESE,120,1.0,3.0,91,0.00,,,0.00,weatherlink.com 1.10,2016-08-25 11:14:00,
2016-08-25 04:29:00,64.2,62.0,29.95,ESE,120,0.0,1.0,91,0.00,,,0.00,weatherlink.com 1.10,2016-08-25 11:29:00,
2016-08-25 04:44:00,64.1,61.0,29.95,ESE,120,0.0,1.0,90,0.00,,,0.00,weatherlink.com 1.10,2016-08-25 11:44:00,
2016-08-25 04:59:00,64.3,61.0,29.95,ESE,120,0.0,2.0,90,0.00,,,0.00,weatherlink.com 1.10,2016-08-25 11:59:00,
2016-08-25 05:14:00,64.4,61.0,29.95,ESE,120,0.0,2.0,89,0.00,,,0.00,weatherlink.com 1.10,2016-08-25 12:14:00,
2016-08-25 05:29:00,64.3,61.0,29.95,ESE,120,0.0,1.0,89,0.00,,,0.00,weatherlink.com 1.10,2016-08-25 12:29:00,
2016-08-25 05:44:00,64.3,61.0,29.95,ESE,120,0.0,3.0,89,0.00,,,0.00,weatherlink.com 1.10,2016-08-25 12:44:00,
2016-08-25 06:14:00,64.3,61.0,29.95,ESE,120,0.0,1.0,88,0.00,,,0.00,weatherlink.com 1.10,2016-08-25 13:14:00,
2016-08-25 06:29:00,64.5,61.0,29.95,ESE,120,0.0,2.0,88,0.00,,,0.00,weatherlink.com 1.10,2016-08-25 13:29:00,
2016-08-25 06:44:00,64.6,61.0,29.96,ESE,120,0.0,2.0,88,0.00,,,0.00,weatherlink.com 1.10,2016-08-25 13:44:00,
2016-08-25 06:59:00,64.6,61.0,29.96,ESE,120,1.0,2.0,87,0.00,,,0.00,weatherlink.com 1.10,2016-08-25 13:59:00,
2016-08-25 07:14:00,64.6,61.0,29.96,ESE,120,0.0,3.0,87,0.00,,,0.00,weatherlink.com 1.10,2016-08-25 14:14:00,
2016-08-25 07:29:00,64.9,61.0,29.96,ESE,120,0.0,4.0,86,0.00,,,0.00,weatherlink.com 1.10,2016-08-25 14:29:00,
2016-08-25 07:44:00,65.2,61.0,29.97,ESE,120,1.0,4.0,85,0.00,,,0.00,weatherlink.com 1.10,2016-08-25 14:44:00,
2016-08-25 07:59:00,65.3,61.0,29.97,ESE,120,1.0,2.0,85,0.00,,,0.00,weatherlink.com 1.10,2016-08-25 14:59:00,
2016-08-25 08:14:00,65.6,61.0,29.97,ESE,120,0.0,3.0,84,0.00,,,0.00,weatherlink.com 1.10,2016-08-25 15:14:00,
2016-08-25 08:44:00,66.8,61.0,29.97,ESE,120,0.0,5.0,82,0.00,,,0.00,weatherlink.com 1.10,2016-08-25 15:44:00,
2016-08-25 08:59:00,68.0,62.0,29.97,ESE,120,1.0,3.0,80,0.00,,,0.00,weatherlink.com 1.10,2016-08-25 15:59:00,
2016-08-25 09:14:00,69.9,62.0,29.97,ESE,120,2.0,5.0,77,0.00,,,0.00,weatherlink.com 1.10,2016-08-25 16:14:00,
2016-08-25 09:29:00,70.9,62.0,29.97,ESE,120,3.0,4.0,73,0.00,,,0.00,weatherlink.com 1.10,2016-08-25 16:29:00,
2016-08-25 09:44:00,73.1,63.0,29.97,ESE,120,0.0,2.0,71,0.00,,,0.00,weatherlink.com 1.10,2016-08-25 16:44:00,
2016-08-25 09:59:00,73.6,63.0,29.97,ESE,120,1.0,2.0,70,0.00,,,0.00,weatherlink.com 1.10,2016-08-25 16:59:00,
2016-08-25 10:14:00,74.6,62.0,29.97,ESE,120,0.0,4.0,66,0.00,,,0.00,weatherlink.com 1.10,2016-08-25 17:14:00,
2016-08-25 10:30:00,75.7,63.0,29.97,ESE,120,0.0,4.0,65,0.00,,,0.00,weatherlink.com 1.10,2016-08-25 17:30:00,
2016-08-25 10:44:00,76.4,63.0,29.97,ESE,120,3.0,5.0,64,0.00,,,0.00,weatherlink.com 1.10,2016-08-25 17:44:00,
2016-08-25 11:00:00,77.4,64.0,29.96,ESE,120,0.0,4.0,63,0.00,,,0.00,weatherlink.com 1.10,2016-08-25 18:00:00,